CHH7064 ZHHH-ZGGG

Flight info

Callsign CHH7064
Flight time 1h 21m
Altitude 23600
Route OLMI5S OLMIB W37 OMBEB R473 BEMAG V5 ENVIP ENVIP1
Aircraft A321/M-SDE3FGHIRWY/LB1

Departure

Time 2026-05-09 07:15
Airport Wuhan Tianhe International Airport (ZHHH)

Arrival

Time 2026-05-09 08:36
Airport Guangzhou Baiyun International Airport (ZGGG)
Time Latitude Longitude Altitude Speed Heading
2026-05-09 07:05 30.76950 114.21735 122 ft 0 kts 308°
2026-05-09 07:08 30.76941 114.21749 122 ft 2 kts 308°
2026-05-09 07:08 30.76932 114.21763 122 ft 2 kts 308°
2026-05-09 07:09 30.76923 114.21777 122 ft 2 kts 308°
2026-05-09 07:09 30.76914 114.21789 122 ft 0 kts 308°
2026-05-09 07:09 30.76908 114.21800 122 ft 2 kts 278°
2026-05-09 07:09 30.76909 114.21811 122 ft 2 kts 250°
2026-05-09 07:10 30.76915 114.21822 122 ft 1 kts 217°
2026-05-09 07:10 30.76918 114.21825 122 ft 0 kts 223°
2026-05-09 07:12 30.76916 114.21822 122 ft 2 kts 222°
2026-05-09 07:12 30.76823 114.21742 122 ft 20 kts 213°
2026-05-09 07:12 30.76732 114.21666 122 ft 28 kts 223°
2026-05-09 07:12 30.76484 114.21407 122 ft 43 kts 221°
2026-05-09 07:13 30.76318 114.21240 122 ft 50 kts 221°
2026-05-09 07:13 30.76000 114.20916 122 ft 31 kts 219°
2026-05-09 07:13 30.75847 114.20995 122 ft 26 kts 133°
2026-05-09 07:13 30.75796 114.21107 122 ft 21 kts 60°
2026-05-09 07:14 30.75820 114.21133 122 ft 0 kts 42°
2026-05-09 07:14 30.75855 114.21169 122 ft 32 kts 41°
2026-05-09 07:14 30.76253 114.21571 122 ft 116 kts 41°
2026-05-09 07:15 30.77055 114.22387 133 ft 183 kts 41°
2026-05-09 07:15 30.78023 114.23336 985 ft 181 kts 39°
2026-05-09 07:15 30.79271 114.24645 1934 ft 191 kts 44°
2026-05-09 07:15 30.80258 114.25745 2469 ft 203 kts 43°
2026-05-09 07:16 30.80960 114.26503 2785 ft 213 kts 43°
2026-05-09 07:16 30.82516 114.28144 3453 ft 238 kts 42°
2026-05-09 07:16 30.83349 114.29021 3831 ft 250 kts 42°
2026-05-09 07:16 30.85078 114.30846 4963 ft 254 kts 41°
2026-05-09 07:17 30.85933 114.31750 5524 ft 256 kts 41°
2026-05-09 07:17 30.87693 114.33614 6678 ft 258 kts 41°
2026-05-09 07:17 30.89003 114.35001 7499 ft 260 kts 41°
2026-05-09 07:17 30.90441 114.36273 8321 ft 261 kts 27°
2026-05-09 07:18 30.92149 114.36894 9095 ft 262 kts
2026-05-09 07:18 30.93957 114.36648 9799 ft 267 kts 343°
2026-05-09 07:18 30.95641 114.35794 10582 ft 268 kts 329°
2026-05-09 07:18 30.97076 114.34402 11290 ft 273 kts 314°
2026-05-09 07:19 30.98335 114.32708 11999 ft 276 kts 311°
2026-05-09 07:19 30.99143 114.31569 12482 ft 278 kts 311°
2026-05-09 07:19 31.00391 114.29842 13147 ft 281 kts 312°
2026-05-09 07:19 31.02095 114.27571 14090 ft 282 kts 312°
2026-05-09 07:20 31.03277 114.25733 14780 ft 285 kts 300°
2026-05-09 07:20 31.03803 114.24332 15190 ft 288 kts 286°
2026-05-09 07:20 31.04017 114.22022 15844 ft 292 kts 268°
2026-05-09 07:20 31.03509 114.18917 16479 ft 304 kts 252°
2026-05-09 07:21 31.02874 114.17385 16689 ft 316 kts 237°
2026-05-09 07:21 31.01365 114.15464 17011 ft 332 kts 224°
2026-05-09 07:21 30.98967 114.13079 17379 ft 350 kts 223°
2026-05-09 07:21 30.97064 114.11217 17635 ft 363 kts 223°
2026-05-09 07:22 30.95095 114.09260 17841 ft 377 kts 223°
2026-05-09 07:22 30.93074 114.07215 18025 ft 391 kts 224°
2026-05-09 07:22 30.91712 114.05827 18108 ft 400 kts 224°
2026-05-09 07:22 30.89569 114.03638 18238 ft 414 kts 224°
2026-05-09 07:23 30.87362 114.01383 18367 ft 427 kts 224°
2026-05-09 07:23 30.84330 113.98289 18529 ft 442 kts 224°
2026-05-09 07:23 30.82013 113.95931 18897 ft 446 kts 224°
2026-05-09 07:23 30.79677 113.93588 19419 ft 447 kts 222°
2026-05-09 07:24 30.77163 113.91421 19882 ft 451 kts 215°
2026-05-09 07:24 30.75317 113.90208 20200 ft 455 kts 209°
2026-05-09 07:24 30.72399 113.88854 20681 ft 460 kts 201°
2026-05-09 07:24 30.68166 113.87762 21215 ft 469 kts 192°
2026-05-09 07:25 30.64935 113.87360 21588 ft 475 kts 187°
2026-05-09 07:25 30.61627 113.87443 22239 ft 476 kts 178°
2026-05-09 07:25 30.58346 113.88125 22841 ft 479 kts 169°
2026-05-09 07:25 30.55134 113.89277 23420 ft 479 kts 166°
2026-05-09 07:26 30.51939 113.90174 23591 ft 475 kts 178°
2026-05-09 07:26 30.49750 113.90280 23604 ft 469 kts 187°
2026-05-09 07:26 30.45456 113.89632 23609 ft 460 kts 196°
2026-05-09 07:26 30.42366 113.88856 23611 ft 459 kts 198°
2026-05-09 07:27 30.39225 113.88026 23608 ft 457 kts 198°
2026-05-09 07:27 30.36141 113.87246 23609 ft 458 kts 197°
2026-05-09 07:27 30.33815 113.86695 23609 ft 459 kts 196°
2026-05-09 07:27 30.30643 113.85998 23609 ft 460 kts 195°
2026-05-09 07:28 30.27487 113.85358 23609 ft 461 kts 194°
2026-05-09 07:28 30.24338 113.84759 23609 ft 459 kts 194°
2026-05-09 07:28 30.21201 113.84190 23609 ft 460 kts 194°
2026-05-09 07:28 30.18029 113.83636 23610 ft 462 kts 194°
2026-05-09 07:29 30.14823 113.83087 23609 ft 461 kts 194°
2026-05-09 07:29 30.11660 113.82552 23611 ft 461 kts 194°
2026-05-09 07:29 30.08480 113.82018 23611 ft 461 kts 193°
2026-05-09 07:29 30.05315 113.81492 23609 ft 461 kts 193°
2026-05-09 07:30 30.02101 113.80961 23612 ft 461 kts 193°
2026-05-09 07:30 29.98908 113.80433 23611 ft 461 kts 193°
2026-05-09 07:30 29.95751 113.79913 23612 ft 460 kts 193°
2026-05-09 07:30 29.92579 113.79391 23622 ft 461 kts 193°
2026-05-09 07:31 29.89403 113.78864 23623 ft 460 kts 194°
2026-05-09 07:31 29.86227 113.78346 23622 ft 460 kts 193°
2026-05-09 07:31 29.83016 113.77958 23623 ft 463 kts 190°
2026-05-09 07:31 29.79818 113.77704 23622 ft 464 kts 189°
2026-05-09 07:32 29.76563 113.77511 23626 ft 465 kts 188°
2026-05-09 07:32 29.73366 113.77340 23624 ft 464 kts 188°
2026-05-09 07:32 29.70141 113.77165 23629 ft 464 kts 188°
2026-05-09 07:32 29.66883 113.76979 23635 ft 463 kts 189°
2026-05-09 07:33 29.63661 113.76784 23645 ft 465 kts 189°
2026-05-09 07:33 29.57212 113.76372 23652 ft 464 kts 189°
2026-05-09 07:33 29.54011 113.76161 23658 ft 463 kts 189°
2026-05-09 07:34 29.50785 113.75944 23662 ft 461 kts 190°
2026-05-09 07:34 29.47571 113.75723 23663 ft 463 kts 190°
2026-05-09 07:34 29.44372 113.75500 23661 ft 462 kts 190°
2026-05-09 07:34 29.41143 113.75275 23661 ft 463 kts 190°
2026-05-09 07:35 29.37943 113.75053 23659 ft 463 kts 190°
2026-05-09 07:35 29.34713 113.74831 23647 ft 462 kts 190°
2026-05-09 07:35 29.31470 113.74605 23655 ft 465 kts 190°
2026-05-09 07:35 29.28255 113.74383 23642 ft 461 kts 190°
2026-05-09 07:36 29.25026 113.74161 23645 ft 463 kts 190°
2026-05-09 07:36 29.21833 113.73973 23644 ft 463 kts 188°
2026-05-09 07:36 29.18614 113.73943 23643 ft 464 kts 186°
2026-05-09 07:36 29.15354 113.74031 23640 ft 466 kts 185°
2026-05-09 07:37 29.12101 113.74169 23639 ft 466 kts 185°
2026-05-09 07:37 29.08851 113.74317 23642 ft 467 kts 185°
2026-05-09 07:37 29.05614 113.74461 23642 ft 467 kts 185°
2026-05-09 07:37 29.02390 113.74595 23643 ft 466 kts 185°
2026-05-09 07:38 28.99118 113.74719 23642 ft 467 kts 186°
2026-05-09 07:38 28.95885 113.74831 23645 ft 468 kts 185°
2026-05-09 07:38 28.92636 113.74936 23650 ft 468 kts 186°
2026-05-09 07:38 28.89361 113.75038 23650 ft 466 kts 185°
2026-05-09 07:39 28.86118 113.75140 23650 ft 466 kts 186°
2026-05-09 07:39 28.82887 113.75236 23649 ft 468 kts 186°
2026-05-09 07:39 28.79630 113.75331 23655 ft 467 kts 186°
2026-05-09 07:39 28.76372 113.75427 23654 ft 465 kts 186°
2026-05-09 07:40 28.73156 113.75494 23656 ft 465 kts 187°
2026-05-09 07:40 28.69904 113.75410 23657 ft 462 kts 190°
2026-05-09 07:40 28.66723 113.75210 23660 ft 461 kts 191°
2026-05-09 07:40 28.63484 113.74949 23663 ft 460 kts 191°
2026-05-09 07:41 28.60296 113.74674 23664 ft 461 kts 191°
2026-05-09 07:41 28.57109 113.74399 23669 ft 460 kts 191°
2026-05-09 07:41 28.53912 113.74128 23670 ft 459 kts 191°
2026-05-09 07:41 28.50730 113.73865 23668 ft 462 kts 191°
2026-05-09 07:42 28.47509 113.73608 23663 ft 460 kts 191°
2026-05-09 07:42 28.44332 113.73360 23666 ft 459 kts 191°
2026-05-09 07:42 28.41121 113.73115 23666 ft 461 kts 191°
2026-05-09 07:42 28.37947 113.72875 23664 ft 460 kts 191°
2026-05-09 07:43 28.34720 113.72636 23659 ft 462 kts 191°
2026-05-09 07:43 28.31531 113.72401 23649 ft 460 kts 191°
2026-05-09 07:43 28.28335 113.72167 23654 ft 462 kts 191°
2026-05-09 07:43 28.25113 113.71935 23650 ft 459 kts 191°
2026-05-09 07:44 28.21936 113.71706 23648 ft 460 kts 191°
2026-05-09 07:44 28.18722 113.71471 23652 ft 460 kts 191°
2026-05-09 07:44 28.15542 113.71237 23649 ft 459 kts 191°
2026-05-09 07:44 28.12339 113.71001 23654 ft 462 kts 191°
2026-05-09 07:45 28.09137 113.70749 23648 ft 460 kts 191°
2026-05-09 07:45 28.05955 113.70476 23649 ft 459 kts 191°
2026-05-09 07:45 28.02758 113.70192 23651 ft 460 kts 192°
2026-05-09 07:45 27.99573 113.69900 23656 ft 461 kts 192°
2026-05-09 07:46 27.96366 113.69604 23654 ft 459 kts 191°
2026-05-09 07:46 27.93158 113.69309 23657 ft 461 kts 191°
2026-05-09 07:46 27.89992 113.69019 23655 ft 461 kts 191°
2026-05-09 07:46 27.86772 113.68726 23654 ft 461 kts 191°
2026-05-09 07:47 27.83571 113.68436 23656 ft 460 kts 191°
2026-05-09 07:47 27.80368 113.68147 23656 ft 464 kts 191°
2026-05-09 07:47 27.77140 113.67856 23656 ft 461 kts 191°
2026-05-09 07:47 27.73975 113.67574 23655 ft 461 kts 191°
2026-05-09 07:48 27.70763 113.67288 23657 ft 463 kts 192°
2026-05-09 07:48 27.67534 113.67001 23658 ft 463 kts 191°
2026-05-09 07:48 27.64346 113.66716 23657 ft 463 kts 191°
2026-05-09 07:48 27.61092 113.66492 23658 ft 465 kts 189°
2026-05-09 07:49 27.57884 113.66376 23659 ft 464 kts 188°
2026-05-09 07:49 27.54611 113.66318 23660 ft 468 kts 187°
2026-05-09 07:49 27.51378 113.66279 23658 ft 468 kts 187°
2026-05-09 07:49 27.48101 113.66244 23660 ft 468 kts 187°
2026-05-09 07:50 27.44843 113.66202 23659 ft 470 kts 188°
2026-05-09 07:50 27.41574 113.66154 23658 ft 468 kts 188°
2026-05-09 07:50 27.38313 113.66100 23658 ft 467 kts 188°
2026-05-09 07:50 27.35047 113.66039 23656 ft 468 kts 188°
2026-05-09 07:51 27.31779 113.65972 23658 ft 468 kts 188°
2026-05-09 07:51 27.28534 113.65904 23656 ft 468 kts 188°
2026-05-09 07:51 27.25267 113.65839 23655 ft 469 kts 187°
2026-05-09 07:51 27.22016 113.65860 23658 ft 472 kts 185°
2026-05-09 07:52 27.18718 113.66099 23658 ft 476 kts 181°
2026-05-09 07:52 27.15436 113.66621 23660 ft 480 kts 176°
2026-05-09 07:52 27.12114 113.67368 23661 ft 484 kts 174°
2026-05-09 07:52 27.08831 113.68239 23662 ft 486 kts 172°
2026-05-09 07:53 27.05541 113.69182 23662 ft 486 kts 172°
2026-05-09 07:53 27.02268 113.70161 23664 ft 485 kts 171°
2026-05-09 07:53 26.99017 113.71146 23664 ft 486 kts 171°
2026-05-09 07:53 26.95767 113.72136 23664 ft 487 kts 171°
2026-05-09 07:54 26.92466 113.73135 23665 ft 485 kts 171°
2026-05-09 07:54 26.89232 113.74113 23663 ft 484 kts 171°
2026-05-09 07:54 26.85963 113.75095 23675 ft 483 kts 171°
2026-05-09 07:54 26.82698 113.76067 23673 ft 481 kts 171°
2026-05-09 07:55 26.79476 113.77020 23673 ft 480 kts 172°
2026-05-09 07:55 26.76268 113.77964 23677 ft 479 kts 172°
2026-05-09 07:55 26.73047 113.78908 23679 ft 478 kts 171°
2026-05-09 07:55 26.69811 113.79889 23684 ft 478 kts 171°
2026-05-09 07:56 26.66577 113.80888 23681 ft 484 kts 171°
2026-05-09 07:56 26.63348 113.81899 23682 ft 477 kts 171°
2026-05-09 07:56 26.60182 113.82899 23684 ft 479 kts 171°
2026-05-09 07:56 26.56957 113.83913 23683 ft 480 kts 171°
2026-05-09 07:57 26.53731 113.84929 23677 ft 477 kts 170°
2026-05-09 07:57 26.50562 113.85931 23680 ft 476 kts 170°
2026-05-09 07:57 26.47353 113.86923 23686 ft 476 kts 171°
2026-05-09 07:57 26.44170 113.87869 23687 ft 477 kts 171°
2026-05-09 07:58 26.40967 113.88800 23694 ft 475 kts 171°
2026-05-09 07:58 26.37733 113.89735 23699 ft 475 kts 172°
2026-05-09 07:58 26.34545 113.90653 23702 ft 474 kts 172°
2026-05-09 07:58 26.31373 113.91561 23706 ft 471 kts 172°
2026-05-09 07:59 26.28166 113.92477 23715 ft 470 kts 172°
2026-05-09 07:59 26.24997 113.93380 23726 ft 471 kts 172°
2026-05-09 07:59 26.21851 113.94278 23741 ft 469 kts 172°
2026-05-09 07:59 26.18668 113.95194 23744 ft 469 kts 172°
2026-05-09 08:00 26.15514 113.96109 23746 ft 470 kts 171°
2026-05-09 08:00 26.12353 113.97025 23749 ft 470 kts 171°
2026-05-09 08:00 26.09193 113.97929 23749 ft 470 kts 172°
2026-05-09 08:00 26.05975 113.98731 23755 ft 466 kts 175°
2026-05-09 08:01 26.02796 113.99210 23748 ft 461 kts 182°
2026-05-09 08:01 25.99590 113.99297 23745 ft 456 kts 187°
2026-05-09 08:01 25.96457 113.99079 23731 ft 452 kts 192°
2026-05-09 08:01 25.93321 113.98679 23714 ft 451 kts 193°
2026-05-09 08:02 25.90222 113.98193 23701 ft 451 kts 194°
2026-05-09 08:02 25.87132 113.97665 23699 ft 451 kts 194°
2026-05-09 08:02 25.84000 113.97105 23697 ft 449 kts 195°
2026-05-09 08:02 25.80921 113.96548 23695 ft 450 kts 195°
2026-05-09 08:03 25.77845 113.95990 23684 ft 449 kts 195°
2026-05-09 08:03 25.74730 113.95428 23674 ft 449 kts 195°
2026-05-09 08:03 25.71626 113.94873 23669 ft 450 kts 194°
2026-05-09 08:03 25.68555 113.94331 23670 ft 450 kts 194°
2026-05-09 08:04 25.65456 113.93790 23668 ft 451 kts 194°
2026-05-09 08:04 25.62365 113.93253 23671 ft 451 kts 194°
2026-05-09 08:04 25.59252 113.92715 23671 ft 451 kts 194°
2026-05-09 08:04 25.56127 113.92176 23674 ft 450 kts 194°
2026-05-09 08:05 25.53038 113.91646 23676 ft 451 kts 194°
2026-05-09 08:05 25.49909 113.91110 23681 ft 451 kts 194°
2026-05-09 08:05 25.46811 113.90577 23679 ft 451 kts 194°
2026-05-09 08:05 25.43701 113.90041 23674 ft 452 kts 194°
2026-05-09 08:06 25.40572 113.89500 23672 ft 452 kts 194°
2026-05-09 08:06 25.37497 113.88972 23675 ft 451 kts 194°
2026-05-09 08:06 25.34394 113.88440 23672 ft 451 kts 194°
2026-05-09 08:06 25.31253 113.87902 23668 ft 453 kts 194°
2026-05-09 08:07 25.28133 113.87367 23664 ft 453 kts 194°
2026-05-09 08:07 25.25011 113.86833 23657 ft 453 kts 194°
2026-05-09 08:07 25.21908 113.86303 23655 ft 452 kts 194°
2026-05-09 08:07 25.18792 113.85770 23645 ft 453 kts 194°
2026-05-09 08:08 25.15697 113.85244 23648 ft 452 kts 194°
2026-05-09 08:08 25.12556 113.84709 23644 ft 452 kts 194°
2026-05-09 08:08 25.09481 113.84185 23641 ft 453 kts 194°
2026-05-09 08:08 25.06359 113.83653 23636 ft 452 kts 194°
2026-05-09 08:09 25.03240 113.83122 23637 ft 453 kts 194°
2026-05-09 08:09 25.00103 113.82590 23636 ft 452 kts 194°
2026-05-09 08:09 24.96991 113.82059 23628 ft 453 kts 194°
2026-05-09 08:09 24.93872 113.81530 23631 ft 452 kts 194°
2026-05-09 08:10 24.90732 113.80998 23633 ft 453 kts 194°
2026-05-09 08:10 24.87632 113.80472 23628 ft 454 kts 194°
2026-05-09 08:10 24.84499 113.79941 23627 ft 454 kts 194°
2026-05-09 08:10 24.81369 113.79411 23631 ft 454 kts 194°
2026-05-09 08:11 24.78214 113.78877 23629 ft 454 kts 194°
2026-05-09 08:11 24.75087 113.78348 23633 ft 453 kts 194°
2026-05-09 08:11 24.71982 113.77824 23634 ft 453 kts 194°
2026-05-09 08:11 24.68830 113.77290 23638 ft 454 kts 194°
2026-05-09 08:12 24.62596 113.76235 23631 ft 454 kts 194°
2026-05-09 08:12 24.59459 113.75704 23632 ft 454 kts 194°
2026-05-09 08:12 24.56322 113.75175 23632 ft 454 kts 194°
2026-05-09 08:13 24.53189 113.74644 23631 ft 455 kts 193°
2026-05-09 08:13 24.50083 113.74120 23651 ft 448 kts 193°
2026-05-09 08:13 24.47030 113.73608 23578 ft 448 kts 193°
2026-05-09 08:13 24.43936 113.73085 23202 ft 448 kts 193°
2026-05-09 08:14 24.40838 113.72562 22799 ft 443 kts 193°
2026-05-09 08:14 24.37804 113.72052 22418 ft 439 kts 193°
2026-05-09 08:14 24.34814 113.71550 22053 ft 437 kts 193°
2026-05-09 08:14 24.31799 113.71046 21688 ft 435 kts 193°
2026-05-09 08:15 24.28809 113.70545 21324 ft 433 kts 193°
2026-05-09 08:15 24.25827 113.70042 20954 ft 430 kts 193°
2026-05-09 08:15 24.22871 113.69541 20592 ft 429 kts 193°
2026-05-09 08:15 24.19920 113.69039 20222 ft 427 kts 193°
2026-05-09 08:16 24.17004 113.68544 19863 ft 425 kts 193°
2026-05-09 08:16 24.14088 113.68048 19498 ft 422 kts 193°
2026-05-09 08:16 24.11204 113.67553 19133 ft 421 kts 193°
2026-05-09 08:16 24.08309 113.67052 18767 ft 419 kts 193°
2026-05-09 08:17 24.05456 113.66557 18402 ft 416 kts 193°
2026-05-09 08:17 24.02616 113.65943 18029 ft 412 kts 199°
2026-05-09 08:17 23.99972 113.64843 17664 ft 405 kts 212°
2026-05-09 08:17 23.97674 113.63099 17297 ft 399 kts 224°
2026-05-09 08:18 23.95729 113.60928 16930 ft 396 kts 230°
2026-05-09 08:18 23.93928 113.58657 16556 ft 393 kts 232°
2026-05-09 08:18 23.92172 113.56390 16194 ft 392 kts 231°
2026-05-09 08:18 23.90403 113.54115 15818 ft 393 kts 232°
2026-05-09 08:19 23.88636 113.51862 15441 ft 390 kts 232°
2026-05-09 08:19 23.86869 113.49599 15065 ft 390 kts 231°
2026-05-09 08:19 23.85138 113.47382 14693 ft 387 kts 232°
2026-05-09 08:19 23.83384 113.45119 14315 ft 386 kts 231°
2026-05-09 08:20 23.81664 113.42915 13936 ft 384 kts 232°
2026-05-09 08:20 23.79908 113.40693 13555 ft 383 kts 231°
2026-05-09 08:20 23.78171 113.38501 13175 ft 382 kts 231°
2026-05-09 08:20 23.76443 113.36312 12794 ft 380 kts 231°
2026-05-09 08:21 23.74735 113.34144 12416 ft 379 kts 231°
2026-05-09 08:21 23.73020 113.31966 12038 ft 377 kts 231°
2026-05-09 08:21 23.71308 113.29793 11656 ft 375 kts 231°
2026-05-09 08:21 23.69624 113.27657 11278 ft 373 kts 231°
2026-05-09 08:22 23.67864 113.25599 10895 ft 367 kts 224°
2026-05-09 08:22 23.65809 113.23995 10506 ft 360 kts 207°
2026-05-09 08:22 23.63453 113.23168 10127 ft 354 kts 194°
2026-05-09 08:22 23.61060 113.22649 9741 ft 346 kts 192°
2026-05-09 08:23 23.58702 113.22185 9359 ft 339 kts 192°
2026-05-09 08:23 23.56415 113.21726 9040 ft 331 kts 193°
2026-05-09 08:23 23.54135 113.21246 8724 ft 329 kts 193°
2026-05-09 08:23 23.51906 113.20757 8411 ft 328 kts 193°
2026-05-09 08:24 23.49675 113.20259 8097 ft 326 kts 193°
2026-05-09 08:24 23.47455 113.19760 7784 ft 324 kts 193°
2026-05-09 08:24 23.45232 113.19260 7469 ft 322 kts 193°
2026-05-09 08:24 23.43060 113.18773 7157 ft 320 kts 193°
2026-05-09 08:25 23.40884 113.18285 6844 ft 318 kts 193°
2026-05-09 08:25 23.38733 113.17806 6529 ft 313 kts 192°
2026-05-09 08:25 23.36606 113.17339 6206 ft 305 kts 193°
2026-05-09 08:25 23.34569 113.16894 5879 ft 291 kts 192°
2026-05-09 08:26 23.32616 113.16467 5562 ft 279 kts 192°
2026-05-09 08:26 23.30751 113.16061 5248 ft 268 kts 192°
2026-05-09 08:26 23.28961 113.15668 4947 ft 259 kts 192°
2026-05-09 08:26 23.27212 113.15282 4657 ft 251 kts 191°
2026-05-09 08:27 23.25520 113.14912 4368 ft 243 kts 191°
2026-05-09 08:27 23.23876 113.14552 4078 ft 237 kts 190°
2026-05-09 08:27 23.22277 113.14202 3783 ft 232 kts 190°
2026-05-09 08:27 23.20704 113.13858 3498 ft 226 kts 190°
2026-05-09 08:28 23.19202 113.13525 3220 ft 220 kts 189°
2026-05-09 08:28 23.17718 113.13205 2923 ft 214 kts 187°
2026-05-09 08:28 23.16235 113.13169 2622 ft 207 kts 163°
2026-05-09 08:28 23.14993 113.13852 2338 ft 197 kts 136°
2026-05-09 08:29 23.14082 113.14918 2044 ft 192 kts 123°
2026-05-09 08:29 23.13490 113.16163 1854 ft 181 kts 101°
2026-05-09 08:29 23.13435 113.17526 1881 ft 181 kts 82°
2026-05-09 08:29 23.13712 113.18855 1859 ft 180 kts 68°
2026-05-09 08:30 23.14399 113.19984 1858 ft 180 kts 38°
2026-05-09 08:30 23.15510 113.20523 1865 ft 174 kts 17°
2026-05-09 08:30 23.16664 113.20908 1865 ft 171 kts 20°
2026-05-09 08:30 23.17791 113.21381 1864 ft 173 kts 23°
2026-05-09 08:31 23.18903 113.21860 1868 ft 173 kts 22°
2026-05-09 08:31 23.20037 113.22320 1866 ft 171 kts 21°
2026-05-09 08:31 23.21144 113.22774 1861 ft 171 kts 22°
2026-05-09 08:31 23.22243 113.23267 1858 ft 165 kts 24°
2026-05-09 08:32 23.23267 113.23771 1853 ft 161 kts 27°
2026-05-09 08:32 23.24267 113.24324 1862 ft 161 kts 28°
2026-05-09 08:32 23.26307 113.25140 1888 ft 140 kts 19°
2026-05-09 08:33 23.27254 113.25447 1901 ft 144 kts 18°
2026-05-09 08:33 23.28218 113.25738 1868 ft 141 kts 17°
2026-05-09 08:33 23.29190 113.26019 1760 ft 143 kts 17°
2026-05-09 08:33 23.30152 113.26290 1545 ft 142 kts 16°
2026-05-09 08:34 23.31113 113.26557 1366 ft 142 kts 16°
2026-05-09 08:34 23.32072 113.26820 1178 ft 141 kts 15°
2026-05-09 08:34 23.33030 113.27082 992 ft 142 kts 15°
2026-05-09 08:34 23.33988 113.27347 803 ft 142 kts 15°
2026-05-09 08:35 23.34939 113.27613 635 ft 140 kts 16°
2026-05-09 08:35 23.35886 113.27887 448 ft 141 kts 15°
2026-05-09 08:35 23.36847 113.28141 256 ft 141 kts 13°
2026-05-09 08:35 23.37808 113.28380 70 ft 142 kts 15°
2026-05-09 08:36 23.38708 113.28626 54 ft 117 kts 13°
2026-05-09 08:36 23.39367 113.28801 54 ft 79 kts 13°
2026-05-09 08:36 23.39713 113.28911 54 ft 39 kts 29°
2026-05-09 08:36 23.39871 113.29078 54 ft 26 kts 88°
2026-05-09 08:37 23.39837 113.29262 54 ft 23 kts 84°
2026-05-09 08:37 23.39963 113.29333 54 ft 20 kts 13°
2026-05-09 08:37 23.40045 113.29395 54 ft 11 kts 36°
2026-05-09 08:37 23.40083 113.29474 54 ft 13 kts 101°
2026-05-09 08:38 23.40070 113.29586 54 ft 14 kts 66°
2026-05-09 08:38 23.40080 113.29661 54 ft 8 kts 103°
2026-05-09 08:38 23.40073 113.29694 54 ft 2 kts 102°
2026-05-09 08:38 23.40072 113.29697 54 ft 0 kts 102°